Showing default

UPMSAT-2, 46276

Orbit data source: Space-Track

UPMSAT-2, 46276 is a payload satellite owned by IDR/UPM (ES) in SSO that was launched on Thu, 03 Sep 2020 UTC via a VEGA launch vehicle from the French Guiana (FRGUI). Payload-class satellites include a variety of spacecraft equipped with specific instruments for various scientific and technological missions. These include communications satellites like Starlink; space stations such as the ISS; scientific satellites like the Hubble; Earth observation satellites from companies like Planet Labs, Umbra, and HawkEye 360; GPS; miniature CubeSats for education and research; and military/defense satellites.

Loading next visibility...
Identifier
46276, 2020-061E
Orbit
SSO
Last TLE update
12 hours ago
Origin
Manufacturer
IDR/UPM
Mission
Operational Amateur Technology
Bus & Motor
UPMSAT-2, Unknown motor
Mass
45 kg wet, 45 kg dry
Launch date (UTC)
2020-09-03 (5 years ago)
Launch vehicle
VEGA
Launch site
French Guiana (FRGUI)
Object type
Payload
Rocket body
Debris
Shape & HBR
Box, Unknown HBR
Radar Cross Section
0.425 m², Medium (>0.1 m² and < 1m²)

Expand to show TLE details & history

TLE from 12 hours ago
0 UPMSAT-2
1 46276U 20061E   25128.74925399  .00066812  00000-0  68855-3 0  9998
2 46276  97.2464 202.1582 0001269 155.7490 204.3830 15.64620767260482
Epoch: 2025-05-08T17:58Z
Definitive object data (Epoch: 2025-05-08T17:58:55.544Z)
Latitude
-0°
Longitude
65.61148°
Altitude
378.265 km
Speed
7.682 km/s
True Right ascension
13h 28m 37s
True Declination
0° 00' 00"
Sunlit
Object was in full shadow at TLE epoch
Visualization TLE readout
Latitude
-16.77782°
Longitude
68.31891°
Altitude
381.797 km
Speed
7.679 km/s
Apparent Right ascension
11h 48m 51s
Apparent Declination
-72° 45' 31"
Sunlit
Object is in full shadow
Visualization observer readout
Local Sidereal Time
14:20:10
Azimuth
191.636° SSW
Elevation
-25.675°
Doppler factor
1
Orbital elements
Apogee altitude
372.086 km
Perigee altitude
370.373 km
Semi-major axis
6,749.366 km
Eccentricity
0.0001269
Inclination
97.2464°
RAAN
202.1582°
Arg. of periapsis
155.749°
True anomaly
204.377°
Mean anomaly
204.383°
Eccentric anomaly
204.38°
Mean motion
3.91425 °/min
BSTAR
0.00068855
Orbital period
91.97 mins
Loading maneuver chart data...
Loading SW <> Apogee altitude chart data...

UPMSAT-2 Visibility forecast

Observer location: undefined°, undefined°

Span
Click to sort rows by Start time (UTC) header in descending order
Start Az.
Max El. time (UTC)
Max El. Az.
Max El.
End time (UTC)
End Az.
5 mins2025-05-09 17:33:22.700Z20.217° NNE2025-05-09 17:36:22.700Z128.414° SE39.298°2025-05-09 17:38:22.700Z178.696° S
|